Weather History for KUNV - November, 2011

Change the Weather History Date:

Friday, November 18, 2011

  Actual Average Record
Temperature  
Mean Temperature 32 °F -  
Max Temperature 41 °F 49 °F 69 °F (1928)
Min Temperature 24 °F 32 °F 11 °F (1959)
Degree Days  
Heating Degree Days 32    
Moisture  
Dew Point 16 °F    
Average Humidity 52    
Maximum Humidity 74    
Minimum Humidity 33    
Precipitation  
Precipitation 0.00 in - - ()
Sea Level Pressure  
Sea Level Pressure 30.28 in    
Wind  
Wind Speed 11 mph (WSW)    
Max Wind Speed 18 mph    
Max Gust Speed 24 mph    
Visibility 10 miles    
Events      
Averages and records for this station are not official NWS values.
T = Trace of Precipitation, MM = Missing Value Source: NWS Daily Summary

Daily Weather History Graph

Daily Weather History Graph

Search for Another Location

Airport or City:

Trip Planner

Search our weather history database for the weather conditions in past years. The results will help you decide how hot, cold, wet, or windy it might be!

Date:

Astronomy

Nov. 18, 2011 Rise Set
Actual Time 7:01 AM EST 4:50 PM EST
Civil Twilight 6:32 AM EST 5:20 PM EST
Nautical Twilight 5:58 AM EST 5:53 PM EST
Astronomical Twilight 5:26 AM EST 6:26 PM EST
Moon No Moon Rise 12:38 PM EST (11/18)
Length of Visible Light 10h 48m
Length of Day
9h 49m
Waning Gibbous, 49% of the Moon is Illuminated
Nov 18
Waning Gibbous
Nov 25
New
Dec 2
First Quarter
Dec 10
Full
Dec 17
Last Quarter

Hourly Weather History & Observations

Time (EST) Temp. Windchill Dew Point Humidity Pressure Visibility Wind Dir Wind Speed Gust Speed Precip Events Conditions
12:15 AM 30.2 °F 18.1 °F 15.8 °F 55% 30.14 in 10.0 mi West 18.4 mph 23.0 mph N/A   Overcast
12:35 AM 30.2 °F 19.3 °F 17.6 °F 60% 30.15 in 10.0 mi West 15.0 mph 18.4 mph N/A   Overcast
12:55 AM 30.2 °F 19.3 °F 17.6 °F 60% 30.16 in 10.0 mi West 15.0 mph 24.2 mph N/A   Mostly Cloudy
1:15 AM 30.2 °F 20.2 °F 17.6 °F 60% 30.17 in 10.0 mi West 12.7 mph 18.4 mph N/A   Overcast
1:35 AM 30.2 °F 20.8 °F 17.6 °F 60% 30.18 in 10.0 mi West 11.5 mph 20.7 mph N/A   Overcast
1:55 AM 30.2 °F 18.9 °F 17.6 °F 60% 30.18 in 10.0 mi West 16.1 mph - N/A   Mostly Cloudy
2:15 AM 30.2 °F 20.8 °F 17.6 °F 60% 30.20 in 10.0 mi West 11.5 mph 17.3 mph N/A   Overcast
2:35 AM 30.2 °F 19.3 °F 17.6 °F 60% 30.21 in 10.0 mi West 15.0 mph 19.6 mph N/A   Overcast
2:55 AM 30.2 °F 21.3 °F 17.6 °F 60% 30.22 in 10.0 mi West 10.4 mph - N/A   Mostly Cloudy
3:15 AM 30.2 °F 20.8 °F 17.6 °F 60% 30.23 in 10.0 mi WSW 11.5 mph - N/A   Mostly Cloudy
3:35 AM 30.2 °F 21.9 °F 17.6 °F 60% 30.24 in 10.0 mi West 9.2 mph 18.4 mph N/A   Overcast
3:55 AM 30.2 °F 21.3 °F 17.6 °F 60% 30.24 in 10.0 mi West 10.4 mph - N/A   Mostly Cloudy
4:15 AM 28.4 °F 19.7 °F 17.6 °F 64% 30.25 in 10.0 mi West 9.2 mph - N/A   Mostly Cloudy
4:35 AM 30.2 °F 21.9 °F 17.6 °F 60% 30.26 in 10.0 mi West 9.2 mph - N/A   Overcast
4:55 AM 30.2 °F 20.2 °F 17.6 °F 60% 30.27 in 10.0 mi West 12.7 mph - N/A   Overcast
5:53 AM 26.6 °F 16.8 °F 15.8 °F 64% 30.30 in 10.0 mi West 10.4 mph - N/A   Scattered Clouds
6:53 AM 24.8 °F 17.9 °F 17.6 °F 74% 30.33 in 10.0 mi SW 5.8 mph - N/A   Scattered Clouds
7:53 AM 26.6 °F 21.2 °F 17.6 °F 69% 30.37 in 10.0 mi WSW 4.6 mph - N/A   Clear
8:53 AM 30.2 °F 20.8 °F 17.6 °F 60% 30.37 in 10.0 mi WSW 11.5 mph - N/A   Clear
10:53 AM 35.6 °F 27.5 °F 19.4 °F 52% 30.38 in 10.0 mi West 11.5 mph 17.3 mph N/A   Clear
12:53 PM 39.2 °F 32.0 °F 15.8 °F 39% 30.35 in 10.0 mi WSW 11.5 mph - N/A   Clear
1:53 PM 41.0 °F 34.3 °F 17.6 °F 39% 30.33 in 10.0 mi SW 11.5 mph - N/A   Clear
2:57 PM 41.0 °F 34.3 °F 14.0 °F 33% 30.33 in 10.0 mi West 11.5 mph - N/A   Clear
3:53 PM 39.2 °F 32.0 °F 14.0 °F 36% 30.33 in 10.0 mi WSW 11.5 mph - N/A   Clear
4:53 PM 35.6 °F 31.7 °F 14.0 °F 41% 30.33 in 10.0 mi South 4.6 mph - N/A   Clear
5:53 PM 33.8 °F 30.8 °F 14.0 °F 44% 30.32 in 10.0 mi SSW 3.5 mph - N/A   Clear
6:53 PM 32.0 °F - 14.0 °F 48% 30.32 in 10.0 mi Calm Calm - N/A   Clear
7:53 PM 32.0 °F 28.7 °F 15.8 °F 51% 30.32 in 10.0 mi SSW 3.5 mph - N/A   Clear
8:53 PM 32.0 °F 26.4 °F 14.0 °F 48% 30.31 in 10.0 mi SW 5.8 mph - N/A   Clear
9:15 PM 32.0 °F 26.4 °F 14.0 °F 48% 30.32 in 10.0 mi SSW 5.8 mph - N/A   Scattered Clouds
9:35 PM 33.8 °F 30.8 °F 14.0 °F 44% 30.32 in 10.0 mi SSW 3.5 mph - N/A   Mostly Cloudy
9:53 PM 33.8 °F 29.6 °F 12.2 °F 41% 30.32 in 10.0 mi SW 4.6 mph - N/A   Mostly Cloudy
9:55 PM 33.8 °F 29.6 °F 12.2 °F 41% 30.32 in 10.0 mi SW 4.6 mph - N/A   Mostly Cloudy
10:15 PM 33.8 °F 29.6 °F 12.2 °F 41% 30.31 in 10.0 mi SW 4.6 mph - N/A   Overcast
10:55 PM 32.0 °F 28.7 °F 12.2 °F 44% 30.30 in 10.0 mi SW 3.5 mph - N/A   Scattered Clouds
11:15 PM 33.8 °F 27.7 °F 10.4 °F 38% 30.30 in 10.0 mi WSW 6.9 mph - N/A   Clear
11:35 PM 33.8 °F 28.6 °F 10.4 °F 38% 30.30 in 10.0 mi SW 5.8 mph - N/A   Clear